WZZ5EQ EPMO-LIEA

Flight info

Callsign WZZ5EQ
Flight time N/A
Altitude 36000
Route EVINA DCT NAVUR DCT REGLI DCT LANUX DCT BAGSI DCT RASTA/N0427F350 DCT MOBDO/N0428F370 DCT OSBUL DCT OLETI/N0391F290 DCT TORTU DCT OKROK DCT AJO M194 REVDO
Aircraft A21N/M-SDE1E2E3FGIJ1J4RWXY/LB1

Departure

Time 2026-04-08 12:52
Airport Warsaw Modlin Airport (EPMO)

Arrival

Time N/A
Airport Alghero-Fertilia Airport (LIEA)
Time Latitude Longitude Altitude Speed Heading
2026-04-08 12:27 52.44739 20.65179 339 ft 0 kts 206°
2026-04-08 12:42 52.44745 20.65182 339 ft 2 kts 179°
2026-04-08 12:43 52.44756 20.65181 339 ft 1 kts 209°
2026-04-08 12:43 52.44763 20.65194 339 ft 0 kts 216°
2026-04-08 12:43 52.44773 20.65195 339 ft 2 kts 155°
2026-04-08 12:43 52.44783 20.65178 338 ft 2 kts 103°
2026-04-08 12:44 52.44783 20.65160 338 ft 0 kts 72°
2026-04-08 12:44 52.44783 20.65159 338 ft 0 kts 72°
2026-04-08 12:48 52.44786 20.65173 338 ft 2 kts 73°
2026-04-08 12:48 52.44797 20.65270 338 ft 16 kts 79°
2026-04-08 12:49 52.44818 20.65509 338 ft 22 kts 84°
2026-04-08 12:49 52.44838 20.65757 341 ft 21 kts 82°
2026-04-08 12:49 52.44860 20.65994 340 ft 22 kts 81°
2026-04-08 12:49 52.44886 20.66272 340 ft 25 kts 81°
2026-04-08 12:50 52.44915 20.66559 339 ft 25 kts 80°
2026-04-08 12:50 52.44938 20.66837 339 ft 24 kts 82°
2026-04-08 12:50 52.44965 20.67017 338 ft 11 kts 43°
2026-04-08 12:50 52.45039 20.67062 337 ft 12 kts 355°
2026-04-08 12:51 52.45127 20.67040 335 ft 6 kts 351°
2026-04-08 12:51 52.45131 20.67038 335 ft 0 kts 351°
2026-04-08 12:51 52.45166 20.67029 334 ft 13 kts 350°
2026-04-08 12:51 52.45279 20.66891 332 ft 30 kts 271°
2026-04-08 12:52 52.45232 20.66351 333 ft 79 kts 262°
2026-04-08 12:52 52.45116 20.65121 336 ft 139 kts 262°
2026-04-08 12:52 52.44953 20.63367 592 ft 164 kts 265°
2026-04-08 12:52 52.44604 20.61558 1193 ft 176 kts 238°
2026-04-08 12:53 52.43534 20.60568 1826 ft 191 kts 192°
2026-04-08 12:53 52.42203 20.60432 2397 ft 198 kts 189°
2026-04-08 12:53 52.40777 20.60102 2831 ft 214 kts 192°
2026-04-08 12:53 52.39274 20.59680 3257 ft 230 kts 192°
2026-04-08 12:54 52.37619 20.59225 3629 ft 252 kts 191°
2026-04-08 12:54 52.35836 20.58761 4070 ft 271 kts 191°
2026-04-08 12:54 52.33916 20.58283 4658 ft 285 kts 190°
2026-04-08 12:54 52.31942 20.57805 5475 ft 289 kts 189°
2026-04-08 12:55 52.29976 20.57334 6308 ft 292 kts 189°
2026-04-08 12:55 52.27964 20.56855 7118 ft 296 kts 189°
2026-04-08 12:55 52.25940 20.56376 7909 ft 299 kts 189°
2026-04-08 12:55 52.23869 20.55886 8706 ft 302 kts 189°
2026-04-08 12:56 52.21786 20.55393 9465 ft 305 kts 189°
2026-04-08 12:56 52.19703 20.54900 10224 ft 308 kts 189°
2026-04-08 12:56 52.17572 20.54393 10828 ft 316 kts 189°
2026-04-08 12:56 52.15349 20.53865 11194 ft 332 kts 189°
2026-04-08 12:57 52.13036 20.53316 11769 ft 340 kts 189°
2026-04-08 12:57 52.10691 20.52759 12473 ft 342 kts 189°
2026-04-08 12:57 52.08329 20.52200 13175 ft 345 kts 189°
2026-04-08 12:57 52.05974 20.51644 13855 ft 347 kts 189°
2026-04-08 12:58 52.03574 20.51077 14504 ft 351 kts 189°
2026-04-08 12:58 52.01163 20.50509 15149 ft 354 kts 189°
2026-04-08 12:58 51.98730 20.49933 15792 ft 356 kts 189°
2026-04-08 12:58 51.96262 20.49351 16389 ft 360 kts 189°
2026-04-08 12:59 51.93774 20.48766 16966 ft 364 kts 189°
2026-04-08 12:59 51.91288 20.48184 17536 ft 367 kts 189°
2026-04-08 12:59 51.88751 20.47588 18108 ft 370 kts 189°
2026-04-08 12:59 51.86200 20.46990 18624 ft 373 kts 189°
2026-04-08 13:00 51.83618 20.46387 19121 ft 377 kts 189°
2026-04-08 13:00 51.81052 20.45791 19597 ft 380 kts 189°
2026-04-08 13:00 51.78397 20.45175 20039 ft 385 kts 189°
2026-04-08 13:00 51.75750 20.44560 20452 ft 390 kts 189°
2026-04-08 13:01 51.73069 20.43935 20884 ft 394 kts 189°
2026-04-08 13:01 51.70341 20.43301 21315 ft 397 kts 189°
2026-04-08 13:01 51.67624 20.42671 21705 ft 401 kts 190°
2026-04-08 13:01 51.64831 20.42024 22113 ft 405 kts 190°
2026-04-08 13:02 51.62049 20.41377 22503 ft 409 kts 190°
2026-04-08 13:02 51.59203 20.40720 22861 ft 414 kts 191°
2026-04-08 13:02 51.56359 20.40062 23204 ft 418 kts 191°
2026-04-08 13:02 51.53474 20.39397 23533 ft 423 kts 191°
2026-04-08 13:03 51.50567 20.38725 23869 ft 427 kts 191°
2026-04-08 13:03 51.47604 20.38041 24233 ft 430 kts 192°
2026-04-08 13:03 51.44660 20.37365 24567 ft 434 kts 192°
2026-04-08 13:03 51.41654 20.36658 24894 ft 438 kts 194°
2026-04-08 13:04 51.38727 20.35355 25191 ft 434 kts 208°
2026-04-08 13:04 51.36126 20.33121 25519 ft 425 kts 222°
2026-04-08 13:04 51.33760 20.30321 25880 ft 424 kts 226°
2026-04-08 13:04 51.31457 20.27434 26202 ft 427 kts 227°
2026-04-08 13:05 51.29120 20.24504 26521 ft 430 kts 226°
2026-04-08 13:05 51.26743 20.21570 26858 ft 433 kts 226°
2026-04-08 13:05 51.24337 20.18646 27247 ft 434 kts 226°
2026-04-08 13:05 51.21939 20.15753 27575 ft 437 kts 226°
2026-04-08 13:06 51.19502 20.12823 27864 ft 440 kts 226°
2026-04-08 13:06 51.17059 20.09895 28175 ft 443 kts 226°
2026-04-08 13:06 51.14617 20.06979 28493 ft 445 kts 226°
2026-04-08 13:06 51.12120 20.03997 28784 ft 448 kts 227°
2026-04-08 13:07 51.09637 20.01038 29106 ft 450 kts 226°
2026-04-08 13:07 51.07130 19.98052 29433 ft 452 kts 227°
2026-04-08 13:07 51.04649 19.95061 29752 ft 452 kts 229°
2026-04-08 13:07 51.02273 19.91853 30082 ft 447 kts 233°
2026-04-08 13:08 51.00069 19.88411 30395 ft 442 kts 238°
2026-04-08 13:08 50.98076 19.84782 30699 ft 438 kts 243°
2026-04-08 13:08 50.96188 19.80984 30966 ft 439 kts 244°
2026-04-08 13:08 50.94327 19.77192 31252 ft 441 kts 244°
2026-04-08 13:09 50.92445 19.73364 31522 ft 443 kts 243°
2026-04-08 13:09 50.90535 19.69496 31749 ft 447 kts 243°
2026-04-08 13:09 50.88602 19.65601 31979 ft 450 kts 243°
2026-04-08 13:09 50.86666 19.61720 32185 ft 452 kts 243°
2026-04-08 13:10 50.84744 19.57876 32399 ft 454 kts 243°
2026-04-08 13:10 50.82762 19.53922 32602 ft 456 kts 243°
2026-04-08 13:10 50.80799 19.50013 32843 ft 457 kts 242°
2026-04-08 13:10 50.78822 19.46076 33055 ft 459 kts 242°
2026-04-08 13:11 50.76852 19.42162 33239 ft 461 kts 242°
2026-04-08 13:11 50.74873 19.38236 33436 ft 463 kts 242°
2026-04-08 13:11 50.72858 19.34242 33609 ft 465 kts 241°
2026-04-08 13:11 50.70841 19.30254 33795 ft 467 kts 241°
2026-04-08 13:12 50.68825 19.26275 33997 ft 469 kts 240°
2026-04-08 13:12 50.64771 19.18295 34450 ft 469 kts 240°
2026-04-08 13:12 50.62742 19.14307 34663 ft 469 kts 240°
2026-04-08 13:13 50.60693 19.10288 34856 ft 469 kts 240°
2026-04-08 13:13 50.58662 19.06310 35055 ft 470 kts 240°
2026-04-08 13:13 50.56612 19.02301 35244 ft 471 kts 240°
2026-04-08 13:13 50.54557 18.98285 35465 ft 470 kts 240°
2026-04-08 13:14 50.52518 18.94305 35627 ft 472 kts 240°
2026-04-08 13:14 50.50457 18.90294 35801 ft 473 kts 240°
2026-04-08 13:14 50.48404 18.86298 35981 ft 474 kts 239°
2026-04-08 13:14 50.46344 18.82299 36162 ft 475 kts 239°
2026-04-08 13:15 50.44274 18.78284 36319 ft 477 kts 239°
2026-04-08 13:15 50.40104 18.70226 36331 ft 476 kts 239°
2026-04-08 13:16 50.35943 18.62207 36332 ft 476 kts 239°
2026-04-08 13:16 50.31809 18.54266 36318 ft 475 kts 239°
2026-04-08 13:17 50.27648 18.46291 36343 ft 474 kts 239°
2026-04-08 13:17 50.23482 18.38329 36331 ft 474 kts 239°
2026-04-08 13:18 50.19317 18.30393 36318 ft 474 kts 238°
2026-04-08 13:18 50.15159 18.22495 36329 ft 474 kts 238°
2026-04-08 13:19 50.10978 18.14574 36331 ft 475 kts 238°
2026-04-08 13:19 50.06800 18.06688 36322 ft 475 kts 238°
2026-04-08 13:20 50.02661 17.98766 36311 ft 471 kts 241°
2026-04-08 13:20 49.98861 17.90577 36302 ft 469 kts 242°
2026-04-08 13:21 49.95082 17.82362 36312 ft 469 kts 242°
2026-04-08 13:21 49.91295 17.74169 36310 ft 468 kts 242°
2026-04-08 13:22 49.87521 17.66030 36276 ft 467 kts 242°
2026-04-08 13:22 49.83762 17.57950 36297 ft 466 kts 242°
2026-04-08 13:23 49.79986 17.49858 36274 ft 466 kts 242°
2026-04-08 13:23 49.76173 17.41715 36273 ft 466 kts 242°
2026-04-08 13:24 49.72383 17.33639 36298 ft 466 kts 241°
2026-04-08 13:24 49.68612 17.25634 36292 ft 466 kts 241°
2026-04-08 13:25 49.64780 17.17527 36297 ft 466 kts 241°
2026-04-08 13:25 49.60998 17.09546 36306 ft 465 kts 241°
2026-04-08 13:26 49.57185 17.01524 36284 ft 465 kts 241°
2026-04-08 13:26 49.53382 16.93546 36281 ft 464 kts 241°
2026-04-08 13:27 49.49546 16.85525 36276 ft 465 kts 241°
2026-04-08 13:27 49.45719 16.77546 36272 ft 465 kts 241°